This is the latest recevied weather packets stored in our database for station/object KE8ZLU. If no packets are shown the sender has not sent any weather packets the latest 10 day(s).
| Time | Temp. | Humidity | Pressure | Rain* | Wind** | Luminosity | Snow |
|---|---|---|---|---|---|---|---|
| 1777761376 | 8.33° C | 47% | 1017.5 hPa | 0 mm | - | 63 W/m² | - |
| 1777761074 | 8.89° C | 46% | 1017.3 hPa | 0 mm | - | 74 W/m² | - |
| 1777760771 | 8.33° C | 46% | 1017.4 hPa | 0 mm | - | 237 W/m² | - |
| 1777760467 | 8.33° C | 47% | 1017.3 hPa | 0 mm | - | 111 W/m² | - |
| 1777760163 | 8.89° C | 49% | 1017.4 hPa | 0 mm | - | 199 W/m² | - |
| 1777759861 | 8.33° C | 50% | 1017.6 hPa | 0 mm | - | 145 W/m² | - |
| 1777759556 | 8.33° C | 48% | 1017.6 hPa | 0 mm | - | 136 W/m² | - |
| 1777759253 | 8.33° C | 48% | 1017.3 hPa | 0 mm | - | 131 W/m² | - |
| 1777758950 | 8.33° C | 49% | 1017.3 hPa | 0 mm | - | 102 W/m² | - |
| 1777758647 | 8.33° C | 50% | 1017.4 hPa | 0 mm | - | 101 W/m² | - |
| 1777758344 | 8.33° C | 48% | 1017.4 hPa | 0 mm | - | 98 W/m² | - |
| 1777758041 | 8.33° C | 47% | 1017.4 hPa | 0 mm | - | 105 W/m² | - |
| 1777757738 | 8.89° C | 47% | 1017.4 hPa | 0 mm | - | 141 W/m² | - |
| 1777757436 | 8.89° C | 50% | 1017.4 hPa | 0 mm | - | 225 W/m² | - |
| 1777757135 | 8.33° C | 50% | 1017.4 hPa | 0 mm | - | 282 W/m² | - |
| 1777756832 | 8.33° C | 49% | 1017.5 hPa | 0 mm | - | 201 W/m² | - |
| 1777756527 | 8.33° C | 50% | 1017.5 hPa | 0 mm | - | 244 W/m² | - |
| 1777756225 | 7.78° C | 48% | 1017.6 hPa | 0 mm | - | 142 W/m² | - |
| 1777755921 | 7.78° C | 52% | 1017.6 hPa | 0 mm | - | 121 W/m² | - |
| 1777755619 | 7.78° C | 50% | 1017.6 hPa | 0 mm | - | 120 W/m² | - |
| 1777755315 | 8.33° C | 49% | 1017.7 hPa | 0 mm | - | 197 W/m² | - |
| 1777755012 | 7.78° C | 50% | 1017.6 hPa | 0 mm | - | 206 W/m² | - |
| 1777754709 | 7.78° C | 50% | 1017.7 hPa | 0 mm | - | 173 W/m² | - |
| 1777754407 | 7.78° C | 49% | 1017.8 hPa | 0 mm | - | 91 W/m² | - |
| 1777754104 | 7.78° C | 49% | 1017.7 hPa | 0 mm | - | 96 W/m² | - |
* Rain latest hour (hover to see other rain measurements)
** Current wind speed in m/s (hover to see current wind gust speed)